Regional Weather Roundup
Issued by NWS Grand Forks, ND

Home | Current Version | Previous Version | Graphics & Text | Print | Product List | Glossary On
Versions: 1 2 3 4 5 6 7 8 9 10 11 12 13 14 15 16 17 18 19 20 21 22 23 24 25 26 27 28 29 30 31 32 33 34 35 36 37 38 39 40 41 42 43 44 45 46 47 48 49 50
000
ASUS43 KFGF 211310
RWRFGF
PRAIRIE TO PINES  WEATHER ROUNDUP
NATIONAL WEATHER SERVICE EASTERN NORTH DAKOTA/GRAND FORKS ND
800 AM CDT MON AUG 21 2017

 **SATELLITE DATA USED TO AUGMENT SKY COVER AT AUTOMATED STATIONS**
 *****  WEATHER ACROSS EASTERN NORTH DAKOTA  *****

CITY           SKY/WX    TMP DP  RH WIND       PRES   REMARKS
GRAND FORKS    CLOUDY    59  54  83 S8        29.99F
GRAND FRKS AFB PTSUNNY   58  53  82 CALM      29.99F
DEVILS LAKE    FAIR      59  55  87 CALM      29.99S
FARGO          LGT RAIN  61  56  83 SE6       30.01S
WAHPETON ARPT  CLOUDY    57  54  88 SE6       30.05F
$$

 ***** WEATHER ACROSS CENTRAL AND WESTERN NORTH DAKOTA  *****

CITY           SKY/WX    TMP DP  RH WIND       PRES   REMARKS
BISMARCK       CLOUDY    58  55  90 CALM      29.97S
MINOT          FAIR      59  50  72 SE5       29.95S
JAMESTOWN      LGT RAIN  58  53  84 SE6       29.99F
MINOT AFB      FAIR      57  51  80 S8        29.92F
GARRISON         N/A     58  54  86 CALM      29.96R
WILLISTON      FAIR      59  44  57 N9        29.99R
DICKINSON      FAIR      52  49  89 SW3       29.99R
HETTINGER      FAIR      47  45  93 CALM      30.03S
$$

 *****  OTHER AIRPORT OBSERVATIONS IN OUR AREA  *****

CITY           SKY/WX    TMP DP  RH WIND       PRES   REMARKS
WALHALLA       FAIR      59  59 100 CALM      29.97F
GRAFTON AIRPOR FAIR      55  55 100 SE5       30.00F
VALLEY CITY AR   N/A     57  57 100 E6        30.04F
CANDO          FAIR      54  54 100 E5        29.99S
CAVALIER APRT  FAIR      59  52  77 S5        29.98F
GWINNER        MOSUNNY   59  55  88 SE9       29.98F
SHEYENNE NWR     N/A     60  58  92 SE7       29.95S
ROLLA          CLOUDY    57  52  82 S5        29.96F
 ***** THE ABOVE OBSERVATIONS ARE NON NWS ARE NOT QUALITY
       CONTROLLED AND MAY MIS-REPORT RAIN FOR SNOW...
$$

  *****  WEATHER ACROSS NORTHERN MINNESOTA  *****

CITY           SKY/WX    TMP DP  RH WIND       PRES   REMARKS
FLAG ISLAND    FAIR      63  45  51 W5        30.00S HAZE
WARROAD        FAIR      55  50  82 SW5       30.03S
ROSEAU           N/A     55  50  82 CALM      30.03S
HALLOCK        PTSUNNY   55  52  88 SE5       30.00R
THF RVR FALLS  CLOUDY    55  51  86 CALM      30.06R
BAUDETTE       FAIR      53  48  83 CALM      30.03R
WASKISH        FAIR      54  52  94 S3        30.05R
CROOKSTON      CLOUDY    57  54  88 CALM      30.04S
STEPHEN NDAWN    N/A     55  52  88 SE2         N/A
GREENBUSH NDAW   N/A     55  50  82 S3          N/A
$$
  *****  WEATHER ACROSS CENTRAL AND WEST MINNESOTA  *****

CITY           SKY/WX    TMP DP  RH WIND       PRES   REMARKS
FOSSTON        PTSUNNY   55  52  88 CALM      30.06R
BEMIDJI        FAIR      55  54  94 CALM      30.07R
PARK RAPIDS    PTSUNNY   59  55  87 CALM      30.06R
ELBOW LAKE     LGT RAIN  60  56  87 N3        30.07R
WADENA         LGT RAIN  55  55 100 CALM      30.05R
DETROIT LAKES  FAIR      61  55  82 CALM      30.08R
MOORHEAD       DRIZZLE   59  55  88 SE9       30.02F
FERGUS FALLS   LGT RAIN  59  59 100 SE3       30.07R
MORRIS MN      FAIR      61  57  88 E5        30.03S
STAPLES        PTSUNNY   55  55 100 CALM      30.05S
$$
  *****  WEATHER ELSEWHERE ACROSS MINNESOTA  *****

CITY           SKY/WX    TMP DP  RH WIND       PRES   REMARKS
DULUTH         FAIR      62  57  83 CALM      30.07F
INTRNTL FALLS  FAIR      51  47  86 S3        30.04S
ELY            FAIR      52  50  93 CALM      30.07F
CLOQUET        FAIR      57  54  88 NW3       30.07S
WHEATON        PTSUNNY   57  55  94 N3        30.09R
BRAINERD       PTSUNNY   58  57  97 CALM      30.06S
HIBBING        FAIR      49  48  97 CALM      30.08F
ALEXANDRIA     PTSUNNY   62  56  80 E7        30.06S
SAINT CLOUD    FAIR      61  59  93 E5        30.06R
MINNEAPOLIS    PTSUNNY   68  59  73 SE5       30.04S
$$

  *****  WEATHER ACROSS SOUTH DAKOTA  *****

CITY           SKY/WX    TMP DP  RH WIND       PRES   REMARKS
SIOUX FALLS    CLOUDY    68  66  93 CALM      29.98F
BROOKINGS      CLOUDY    65  61  87 SE6       29.99F
WATERTOWN      TSTM      63  62  97 CALM      30.02F
HURON          PTSUNNY   64  61  90 N5        29.99R
SISSETON         N/A     58  57  97 NW8       30.05R
ABERDEEN       LGT RAIN  58  56  93 S13       30.01F
MITCHELL       FAIR      66  65  96 E6        29.97F
PIERRE         CLOUDY    61  55  81 NE14      29.96F
MOBRIDGE       PTSUNNY   60  53  77 CALM      30.00R
RAPID CITY     FAIR      58  52  80 N6        30.01R
$$

  *****  SOME WEATHER IN NEARBY STATES *****

CITY           SKY/WX    TMP DP  RH WIND       PRES   REMARKS
GLASGOW MT     FAIR      54  34  46 NW8       30.08R
GREAT FALLS MT FAIR      52  30  43 SW10      30.16R
CHEYENNE WY    FAIR      61  39  44 NW8       30.16R
SCOTTSBLUFF NE FOG       64  63  96 W5        30.02R VSB<1/4
OMAHA NE       PTSUNNY   68  64  87 E28G40    30.02F THUNDER
DES MOINES IA  LGT RAIN  68  65  90 SE7       30.10F
DAVENPORT IA   RAIN      69  67  93 SW3       30.16R FOG
CHICAGO IL     CLOUDY    73  68  84 SW5       30.05S
EAU CLAIRE WI  PTSUNNY   68  64  87 CALM      30.05S
LA CROSSE WI   FAIR      71  66  84 SE6       30.04S
$$

  *****  SOME NATIONAL WEATHER *****

CITY           SKY/WX    TMP DP  RH WIND       PRES   REMARKS
LA GUARDIA NY  FAIR      80  62  54 W8        30.19S
RALEIGH NC     FAIR      81  76  84 CALM      30.23S
ATLANTA GA     FAIR      80  72  76 NE7       30.20R
NEW ORLEANS LA FAIR      84  77  79 NW3       30.08S HX  94
OKLAHOMA CITY  FAIR      75  72  90 S7        30.07R
ALBUQUERQUE NM CLOUDY    61  61 100 SW3       30.22R
SALT LAKE CITY FAIR      69  43  38 E6        30.08R
LOS ANGELES CA MOCLDY    69  60  73 SE6       29.96R
BOISE ID       FAIR      57  40  52 S5        30.07R
SEATTLE WA     FAIR      60  54  80 N9        30.12S
$$

*** WEATHER ACROSS MANITOBA...SASKATCHEWAN AND ONTARIO ***
                ***ONTARIO***

CITY           SKY/WX    TMP DP  RH WIND       PRES   REMARKS
GERALDTON      PTSUNNY   61  57  88 SW8       30.00R
THUNDER BAY    PTSUNNY   57  54  88 SW5       30.04F
SIOUX LOOKOUT  MOSUNNY   61  50  67 SW7       29.99R
TORONTO        MOSUNNY   73  63  68 VRB2      30.10F
BIG TROUT LK   SUNNY     61  48  63 W13G22    29.75S
PICKLE LAKE    MOSUNNY   61  46  59 W10       29.90S
DRYDEN         SUNNY     59  52  77 SW6       30.00R
KENORA         PTSUNNY   63  48  59 SW7       30.01R
$$
                *** MANITOBA***

CITY           SKY/WX    TMP DP  RH WIND       PRES   REMARKS
BRANDON        LGT RAIN  55  52  88 E7        29.94F
DAUPHIN        LGT RAIN  57  50  77 CALM      29.96R
ISLAND LAKE    SUNNY     57  50  77 SW2       29.80S SMOKE
PILOT MOUND      N/A     55  52  88 SE5         N/A
THE PAS        MOSUNNY   54  46  76 W13       29.87R
THOMPSON       MOSUNNY   50  48  93 VRB2      29.76R
WINNIPEG       LGT RAIN  59  54  82 S5        29.98S
LYNN LAKE      CLOUDY    52  48  87 MISG      29.78R
CHURCHILL      CLOUDY    50  50 100 NE18G24   29.68R FOG
GILLAM         PTSUNNY   59  50  72 W14G22    29.66R
$$
                ***SASKATCHEWAN***

CITY           SKY/WX    TMP DP  RH WIND       PRES   REMARKS
ESTEVAN        MOCLDY    54  43  66 NW12      29.95R
KINDERSLEY     PTCLDY    43  41  93 CALM      30.12R
LLOYDMINSTER   PTCLDY    46  45  93 W13       30.08R
PRINCE ALBERT  PTCLDY    48  45  87 W5        30.01R
REGINA         PTCLDY    52  43  71 NW9       30.04R
YORKTON        PTSUNNY   54  50  87 SW7       29.97R
N. BATTLEFORD  CLEAR     43  41  93 W2        30.09R
LA RONGE       PTCLDY    50  45  81 W9        29.92R
SASKATOON      CLEAR     45  43  93 W6        30.07R
SWIFT CURRENT  MOCLDY    48  41  76 W8        30.11R
$$
NOTE: THESE ARE AUTOMATED STATIONS WITH LIMITED QUALITY CONTROL
      "FAIR" INDICATES FEW OR NO CLOUDS BELOW 12,000 FEET WITH NO
      SIGNIFICANT WEATHER AND/OR OBSTRUCTIONS TO VISIBILITY.
      SKY/WX - SKY CONDITION AND SIGNIFICANT WEATHER.
      TMP - AIR TEMPERATURE.    DP   - DEWPOINT TEMPERATURE.
      RH  - RELATIVE HUMIDITY.  PRES - PRESSURE.
      HX  - HEAT INDEX.         WCI  - WIND CHILL INDEX.
$




USA.gov is the U.S. government's official web portal to all federal, state and local government web resources and services.